Time,TemperatureF,DewpointF,PressureIn,WindDirection,WindDirectionDegrees,WindSpeedMPH,WindSpeedGustMPH,Humidity,HourlyPrecipIn,Conditions,Clouds,dailyrainin,SoftwareType,DateUTC
2013-02-11 00:11:00,37.0,22.0,-100.00,WNW,295,14.0,24.0,54,-99.99,,,-99.99,,2013-02-11 06:11:00,
2013-02-11 00:31:00,37.0,23.0,-100.00,WNW,290,15.0,19.0,56,-99.99,,,-99.99,,2013-02-11 06:31:00,
2013-02-11 00:41:00,37.0,23.0,-100.00,West,280,21.0,28.0,56,-99.99,,,-99.99,,2013-02-11 06:41:00,
2013-02-11 01:11:00,36.0,22.0,-100.00,WNW,295,20.0,28.0,57,-99.99,,,-99.99,,2013-02-11 07:11:00,
2013-02-11 01:31:00,36.0,22.0,-100.00,WNW,290,20.0,26.0,58,-99.99,,,-99.99,,2013-02-11 07:31:00,
2013-02-11 01:41:00,36.0,23.0,-100.00,WNW,290,21.0,28.0,59,-99.99,,,-99.99,,2013-02-11 07:41:00,
2013-02-11 02:01:00,35.0,22.0,-100.00,WNW,295,21.0,28.0,59,-99.99,,,-99.99,,2013-02-11 08:01:00,
2013-02-11 02:11:00,35.0,22.0,-100.00,WNW,290,18.0,29.0,59,-99.99,,,-99.99,,2013-02-11 08:11:00,
2013-02-11 02:31:00,35.0,22.0,-100.00,WNW,295,19.0,26.0,60,-99.99,,,-99.99,,2013-02-11 08:31:00,
2013-02-11 02:41:00,35.0,22.0,-100.00,WNW,290,16.0,26.0,60,-99.99,,,-99.99,,2013-02-11 08:41:00,
2013-02-11 03:01:00,34.0,22.0,-100.00,WNW,300,12.0,19.0,62,-99.99,,,-99.99,,2013-02-11 09:01:00,
2013-02-11 03:11:00,34.0,22.0,-100.00,NW,305,16.0,21.0,62,-99.99,,,-99.99,,2013-02-11 09:11:00,
2013-02-11 03:31:00,34.0,22.0,-100.00,NW,315,16.0,24.0,62,-99.99,,,-99.99,,2013-02-11 09:31:00,
2013-02-11 03:41:00,33.0,22.0,-100.00,WNW,300,14.0,20.0,63,-99.99,,,-99.99,,2013-02-11 09:41:00,
2013-02-11 04:01:00,33.0,22.0,-100.00,WNW,290,16.0,24.0,65,-99.99,,,-99.99,,2013-02-11 10:01:00,
2013-02-11 04:11:00,33.0,22.0,-100.00,WNW,300,14.0,24.0,65,-99.99,,,-99.99,,2013-02-11 10:11:00,
2013-02-11 04:31:00,32.0,22.0,-100.00,WNW,295,15.0,21.0,66,-99.99,,,-99.99,,2013-02-11 10:31:00,
2013-02-11 04:41:00,32.0,22.0,-100.00,WNW,295,14.0,20.0,67,-99.99,,,-99.99,,2013-02-11 10:41:00,
2013-02-11 05:01:00,32.0,22.0,-100.00,West,280,15.0,21.0,67,-99.99,,,-99.99,,2013-02-11 11:01:00,
2013-02-11 05:11:00,31.0,22.0,-100.00,WNW,295,17.0,23.0,68,-99.99,,,-99.99,,2013-02-11 11:11:00,
2013-02-11 05:31:00,31.0,22.0,-100.00,WNW,295,14.0,20.0,68,-99.99,,,-99.99,,2013-02-11 11:31:00,
2013-02-11 05:41:00,31.0,22.0,-100.00,WNW,300,12.0,19.0,68,-99.99,,,-99.99,,2013-02-11 11:41:00,
2013-02-11 06:31:00,31.0,21.0,-100.00,WNW,290,11.0,17.0,68,-99.99,,,-99.99,,2013-02-11 12:31:00,
2013-02-11 06:41:00,31.0,21.0,-100.00,WNW,300,11.0,19.0,68,-99.99,,,-99.99,,2013-02-11 12:41:00,
2013-02-11 07:11:00,30.0,21.0,-100.00,NW,305,11.0,17.0,68,-99.99,,,-99.99,,2013-02-11 13:11:00,
2013-02-11 07:31:00,30.0,21.0,-100.00,WNW,295,9.0,18.0,68,-99.99,,,-99.99,,2013-02-11 13:31:00,
2013-02-11 07:41:00,31.0,21.0,-100.00,WNW,285,11.0,16.0,68,-99.99,,,-99.99,,2013-02-11 13:41:00,
2013-02-11 08:01:00,31.0,22.0,-100.00,WNW,285,16.0,22.0,68,-99.99,,,-99.99,,2013-02-11 14:01:00,
2013-02-11 08:11:00,31.0,22.0,-100.00,NW,305,13.0,18.0,67,-99.99,,,-99.99,,2013-02-11 14:11:00,
2013-02-11 09:41:00,34.0,22.0,-100.00,NW,305,11.0,24.0,62,-99.99,,,-99.99,,2013-02-11 15:41:00,
2013-02-11 10:02:00,33.0,22.0,-100.00,NW,320,11.0,23.0,64,-99.99,,,-99.99,,2013-02-11 16:02:00,
2013-02-11 10:11:00,35.0,22.0,-100.00,NNW,335,12.0,21.0,59,-99.99,,,-99.99,,2013-02-11 16:11:00,
2013-02-11 10:31:00,36.0,22.0,-100.00,NW,310,12.0,18.0,58,-99.99,,,-99.99,,2013-02-11 16:31:00,
2013-02-11 10:32:00,34.0,22.0,-100.00,NW,305,11.0,24.0,62,-99.99,,,-99.99,,2013-02-11 16:32:00,
2013-02-11 11:01:00,37.0,23.0,-100.00,NW,310,8.0,14.0,56,-99.99,,,-99.99,,2013-02-11 17:01:00,
2013-02-11 11:41:00,40.0,24.0,-100.00,WNW,285,14.0,18.0,54,-99.99,,,-99.99,,2013-02-11 17:41:00,
2013-02-11 13:31:00,42.0,24.0,-100.00,WNW,295,12.0,19.0,48,-99.99,,,-99.99,,2013-02-11 19:31:00,
2013-02-11 14:01:00,43.0,24.0,-100.00,NW,315,12.0,18.0,46,-99.99,,,-99.99,,2013-02-11 20:01:00,
2013-02-11 14:11:00,44.0,24.0,-100.00,WNW,285,10.0,21.0,45,-99.99,,,-99.99,,2013-02-11 20:11:00,
2013-02-11 14:41:00,44.0,23.0,-100.00,West,280,11.0,19.0,44,-99.99,,,-99.99,,2013-02-11 20:41:00,
2013-02-11 15:01:00,44.0,23.0,-100.00,NW,310,9.0,19.0,43,-99.99,,,-99.99,,2013-02-11 21:01:00,
2013-02-11 15:31:00,45.0,23.0,-100.00,WNW,290,11.0,19.0,42,-99.99,,,-99.99,,2013-02-11 21:31:00,
2013-02-11 15:41:00,45.0,23.0,-100.00,NW,305,11.0,18.0,41,-99.99,,,-99.99,,2013-02-11 21:41:00,
2013-02-11 16:01:00,45.0,23.0,-100.00,WNW,285,11.0,19.0,41,-99.99,,,-99.99,,2013-02-11 22:01:00,
2013-02-11 16:11:00,45.0,22.0,-100.00,WNW,300,9.0,17.0,40,-99.99,,,-99.99,,2013-02-11 22:11:00,
2013-02-11 16:31:00,45.0,22.0,-100.00,West,280,11.0,14.0,40,-99.99,,,-99.99,,2013-02-11 22:31:00,
2013-02-11 16:41:00,45.0,22.0,-100.00,WNW,295,11.0,16.0,40,-99.99,,,-99.99,,2013-02-11 22:41:00,
2013-02-11 17:01:00,45.0,22.0,-100.00,WNW,290,8.0,12.0,40,-99.99,,,-99.99,,2013-02-11 23:01:00,
2013-02-11 17:11:00,44.0,22.0,-100.00,WNW,290,9.0,11.0,40,-99.99,,,-99.99,,2013-02-11 23:11:00,
2013-02-11 17:31:00,43.0,21.0,-100.00,WNW,285,7.0,10.0,41,-99.99,,,-99.99,,2013-02-11 23:31:00,
2013-02-11 17:41:00,42.0,20.0,-100.00,West,275,7.0,10.0,42,-99.99,,,-99.99,,2013-02-11 23:41:00,
2013-02-11 17:52:00,45.0,22.0,-100.00,WNW,290,8.0,12.0,40,-99.99,,,-99.99,,2013-02-11 23:52:00,
2013-02-11 18:01:00,40.0,19.0,-100.00,West,270,7.0,9.0,43,-99.99,,,-99.99,,2013-02-12 00:01:00,
2013-02-11 18:11:00,39.0,19.0,-100.00,West,280,8.0,9.0,44,-99.99,,,-99.99,,2013-02-12 00:11:00,
2013-02-11 18:41:00,39.0,19.0,-100.00,West,260,8.0,9.0,45,-99.99,,,-99.99,,2013-02-12 00:41:00,
2013-02-11 19:01:00,38.0,19.0,-100.00,WSW,255,7.0,8.0,45,-99.99,,,-99.99,,2013-02-12 01:01:00,
2013-02-11 19:11:00,38.0,19.0,-100.00,WSW,255,8.0,9.0,46,-99.99,,,-99.99,,2013-02-12 01:11:00,
2013-02-11 19:30:00,38.0,19.0,-100.00,WSW,250,8.0,9.0,46,-99.99,,,-99.99,,2013-02-12 01:30:00,
2013-02-11 19:32:00,39.0,19.0,-100.00,West,260,8.0,9.0,45,-99.99,,,-99.99,,2013-02-12 01:32:00,
2013-02-11 19:41:00,38.0,19.0,-100.00,West,260,8.0,9.0,46,-99.99,,,-99.99,,2013-02-12 01:41:00,
2013-02-11 20:30:00,38.0,20.0,-100.00,WNW,285,11.0,11.0,46,-99.99,,,-99.99,,2013-02-12 02:30:00,
2013-02-11 20:41:00,38.0,19.0,-100.00,WNW,285,11.0,13.0,46,-99.99,,,-99.99,,2013-02-12 02:41:00,
2013-02-11 21:01:00,37.0,18.0,-100.00,WNW,285,9.0,12.0,46,-99.99,,,-99.99,,2013-02-12 03:01:00,
2013-02-11 21:11:00,37.0,19.0,-100.00,WNW,285,10.0,12.0,47,-99.99,,,-99.99,,2013-02-12 03:11:00,
2013-02-11 21:30:00,37.0,19.0,-100.00,WNW,295,9.0,11.0,47,-99.99,,,-99.99,,2013-02-12 03:30:00,
2013-02-11 21:41:00,36.0,18.0,-100.00,NW,315,6.0,10.0,47,-99.99,,,-99.99,,2013-02-12 03:41:00,
2013-02-11 22:00:00,35.0,18.0,-100.00,NW,325,6.0,8.0,48,-99.99,,,-99.99,,2013-02-12 04:00:00,
2013-02-11 22:10:00,35.0,18.0,-100.00,NNW,340,5.0,7.0,49,-99.99,,,-99.99,,2013-02-12 04:10:00,
2013-02-11 22:30:00,34.0,17.0,-100.00,NNW,340,6.0,7.0,50,-99.99,,,-99.99,,2013-02-12 04:30:00,
2013-02-11 22:41:00,34.0,18.0,-100.00,NNW,335,6.0,8.0,51,-99.99,,,-99.99,,2013-02-12 04:41:00,
2013-02-11 23:00:00,34.0,18.0,-100.00,NW,325,6.0,7.0,52,-99.99,,,-99.99,,2013-02-12 05:00:00,
2013-02-11 23:10:00,34.0,18.0,-100.00,NW,320,6.0,8.0,52,-99.99,,,-99.99,,2013-02-12 05:10:00,
2013-02-11 23:30:00,34.0,18.0,-100.00,NW,325,5.0,8.0,52,-99.99,,,-99.99,,2013-02-12 05:30:00,
2013-02-11 23:41:00,34.0,18.0,-100.00,NNW,330,5.0,7.0,53,-99.99,,,-99.99,,2013-02-12 05:41:00,